www.pogodaiklimat.ru

Погода и климат >> Архив погоды >> Коста-Рика >> Либерия


ПОГОДА в Либерии

  • Прогноз погоды в Либерии
  • Монитор погоды в Либерии

АРХИВ ПОГОДЫ в Либерии

Время (UTC), дата Ветер
(напр.,м/с)
 
Видим.   Явления Облачность Т
(С)
Тd
(С)
f
(%)
Тe
(С)
Тes
(С)
Комфортность P
(гПа)
Po
(гПа)
Тmin
(С)
Tmax
(С)
R
(мм)
R24
(мм)
S
(см)
12 17.06 В 9 20 км 8/1 1350 м
[Cu med, cong Ci]
+26.5 +23.6 84 +36 +36 очень
душно
1009.9 1000.1 +23.8 +34.7
15 17.06 В 14 20 км 6/1 1350 м
[Cu med, cong Ci fib]
+31.3 +24.8 68 +44 +44 опасность
перегрева
1010.7 1001.0
18 17.06 В 9 20 км 6/1 1350 м
[Cu med, cong Ci fib]
+33.8 +23.5 55 +45 +46 опасность
перегрева
1008.3 999.1 +23.8 +33.9
21 17.06 В 20 20 км 8/1 1350 м
[Cu med, cong Ci]
+33.2 +22.3 53 +42 +42 опасность
перегрева
1006.8 997.5
00 18.06 В 8 20 км 6/0
[Ci]
+31.3 +22.0 58 +40 +40 очень
душно
1007.0 997.7 +23.8 +34.6
03 18.06 В 7 20 км 5/0
[Ci]
+29.3 +21.9 64 +38 +38 очень
душно
1008.7 999.5
06 18.06 В 9 20 км 4/0
[Ci]
+28.7 +22.4 69 +38 +38 очень
душно
1008.5 999.3 +23.8 +34.6
12 18.06 СЗ 3 20 км 6/6 1350 м
[Cu med, cong]
+25.4 +23.3 88 +34 +34 очень
душно
1009.1 999.8 +24.0 +34.6
15 18.06 З 8 20 км 1/1 1350 м
[Cu med, cong]
+30.8 +25.1 72 +45 +47 опасность
перегрева
1009.6 1000.4
18 18.06 В 11 20 км 6/6 1350 м
[Cu med, cong]
+33.2 +24.0 59 +45 +45 опасность
перегрева
1008.8 999.6 +24.0 +33.7
21 18.06 В 18 20 км 3/3 1350 м
[Cu med, cong]
+33.4 +23.1 55 +44 +44 опасность
перегрева
1007.0 997.8
00 19.06 В 18 20 км 6/0
[Ci sp]
+30.4 +22.3 62 +39 +39 очень
душно
1007.9 998.6 +24.0 +34.2
03 19.06 В 19 20 км ясно +29.5 +22.5 66 +39 +39 очень
душно
1008.4 999.2
12 19.06 СВ 3 20 км 6/0
[Ci sp]
+25.1 +22.8 87 +33 +33 очень
душно
1008.9 999.5 +23.8 +34.2
15 19.06 С 7 20 км 3/3 900 м
[Cu med, cong]
+31.0 +24.7 69 +44 +46 опасность
перегрева
1020.1 1001.1
18 19.06 В 10 20 км 9/9 750 м
[Cu med, cong]
+31.5 +23.6 63 +43 +43 опасность
перегрева
1008.2 999.0 +23.8 +33.4
21 19.06 В 13 20 км 9/5 900 м
[Cu med, cong Ci sp]
+33.0 +23.3 57 +44 +44 опасность
перегрева
1007.2 998.1
00 20.06 В 11 20 км 9/1 1050 м
[Cu med, cong Ci sp]
+30.3 +23.4 67 +41 +41 опасность
перегрева
1007.6 998.3 +23.8 +34.7
03 20.06 В 4 20 км 5/5
[Cu med, cong]
+28.4 +23.6 75 +39 +39 очень
душно
1010.3 1001.0
06 20.06 В 7 20 км ясно +27.5 +23.4 78 +37 +37 очень
душно
1009.6 1000.3 +23.8 +34.7
12 20.06 ЮВ 4 20 км в посл. час дождь 10/1 1350 м
[Cu med, cong Ci]
+25.5 +23.9 91 +35 +35 очень
душно
1008.8 999.0 +24.5 +34.7 0.4
15 20.06 З 4 20 км 10/1 1350 м
[Cu med, cong Ci]
+27.9 +26.0 89 +42 +48 опасность
перегрева
1010.4 1001.1
18 20.06 В 7 20 км слаб. морось 10/1 1050 м
[Cu med, cong As op]
+27.7 +24.3 82 +39 +40 очень
душно
1010.0 1000.7 +24.5 +30.7
21 20.06 Ю 3 20 км 10/1 900 м
[Cu med, cong Ci]
+30.1 +25.7 77 +44 +50 опасность
перегрева
1008.7 999.4
00 21.06 ЮВ 5 20 км 10/3 1350 м
[Sc As op]
+27.9 +23.8 78 +38 +38 очень
душно
1009.3 1000.0 +24.5 +30.7
03 21.06 ЮВ 4 20 км 10/1 1350 м
[Sc As op]
+26.4 +22.9 81 +35 +35 очень
душно
1010.1 1000.8
06 21.06 В 3 20 км 10/1 1350 м
[Cu med, cong Cs]
+25.4 +23.4 89 +34 +34 очень
душно
1011.1 1001.7 +24.5 +30.7
12 21.06 В 3 20 км 5/0
[Cs]
+24.2 +23.2 94 +32 +33 очень
душно
1010.4 1001.0 +23.1 +30.7
15 21.06 В 10 20 км 4/0
[Ci]
+31.1 +25.4 72 +45 +46 опасность
перегрева
1011.9 1002.6
18 21.06 ЮВ 5 20 км 3/3 1200 м
[Cu med, cong]
+33.0 +24.3 60 +45 +53 опасность
перегрева
1010.1 1000.8 +23.1 +33.3
21 21.06 З 10 20 км 5/5 1200 м
[Cu med, cong]
+30.6 +24.6 70 +43 +43 опасность
перегрева
1009.3 1000.0
00 22.06 Ю 5 20 км {гроза, дождь} 9/1 120 м
[Frnb As op]
+26.2 +24.3 89 +36 +36 очень
душно
1011.1 1001.7 +23.1 +33.8 11
03 22.06 СВ 3 20 км 10/1 1200 м
[Cu med, cong Ac trans]
+24.9 +23.5 92 +34 +34 очень
душно
1011.7 1002.4
12 22.06 нст 2 20 км 6/6 30 м
[St]
+25.0 +24.2 95 +34 +35 очень
душно
1011.4 1002.0 +23.6 +33.8 0.8
15 22.06 Ю 4 20 км 6/1 750 м
[Sc Cs]
+29.2 +26.5 85 +45 +52 опасность
перегрева
1011.5 1002.1
18 22.06 В 8 20 км 9/3 900 м
[Cu hum Cs]
+30.6 +24.6 70 +43 +45 опасность
перегрева
1011.3 1002.0 +23.6 +30.9
21 22.06 ЮЗ 6 20 км 9/1 1050 м
[Cu med, cong Ci sp]
+31.0 +24.8 70 +44 +47 опасность
перегрева
1009.2 1000.0
00 23.06 В 2 20 км слаб. морось 9/4 750 м
[Cb cap Ac trans]
+28.8 +24.8 79 +41 +41 опасность
перегрева
1010.1 1000.8 +23.6 +32.3
03 23.06 В 8 20 км 6/0
[Ac trans]
+28.5 +24.1 77 +40 +40 очень
душно
1010.7 1001.4
12 23.06 ЮВ 5 20 км ясно +26.3 +23.6 85 +36 +36 очень
душно
1011.2 1001.9 +24.2 +32.3
15 23.06 В 14 20 км 1/1 1350 м
[Cu med, cong]
+31.3 +24.3 66 +43 +43 опасность
перегрева
1011.6 1002.3
18 23.06 В 13 20 км 1/1 1350 м
[Cu med, cong]
+33.2 +23.5 57 +44 +44 опасность
перегрева
1010.4 1001.1 +24.2 +33.6
21 23.06 В 9 20 км 1/1 1350 м
[Cu med, cong]
+33.0 +23.0 56 +43 +44 опасность
перегрева
1008.6 999.3
00 24.06 ЮВ 5 20 км 1/0
[As op]
+29.4 +22.5 66 +38 +38 очень
душно
1010.2 1000.9 +24.2 +34.0
03 24.06 ЮВ 7 20 км 1/1 1350 м
[Cu med, cong]
+27.1 +22.6 76 +36 +36 очень
душно
1011.9 1002.6
06 24.06 ЮЗ 6 20 км 9/3 1350 м
[Cu med, cong As op]
+25.4 +23.0 87 +34 +34 очень
душно
1011.8 1002.5 +24.2 +34.0

 

Местоположение метеостанции Либерия (Коста-Рика): широта 10.62 долгота -85.43 высота над уровнем моря 80 м.

В архиве по умолчанию представлена погода в Либерии за последнюю неделю. Архивные данные за месяц целиком и за предыдущие месяцы, начиная с января 2011 года, Вы можете получить, выбрав интересующий диапазон дат из раскрывающегося списка и нажав кнопку "Ввод!".


*Определитесь, кто Вы:
робот инопланетянин человек

Внимание! Время в таблицах - всемирное. Для получения местного времени необходимо прибавить поправку, которая равна -6 ч.

Смотрите также архив погоды в соседних городах и на ближайших метеорологических станциях:

Погода в Ривасе (Никарагуа) (99 км)
Погода в Сан-Хосе (Коста-Рика) (151 км)
Погода в Сан-Хосе аэропорту (Коста-Рика) (159 км)
Погода в Хуигальпе (Никарагуа) (165 км)
Погода в Манагуа (Никарагуа) (188 км)
Погода в Блуфилдсе (Никарагуа) (237 км)
Погода в Пуэрто-Лимоне (Коста-Рика) (269 км)
Погода в Хинотеге (Никарагуа) (280 км)
Погода в Чинандеге (Никарагуа) (290 км)
Погода в Чолутеке (Гондурас) (354 км)

Пояснения к столбцам:

Ветер - указаны скорость ветра в м/с - средняя за 10 мин, порывы в срок и между сроками (в фигурных скобках) и направление, откуда дует ветер: С - северный, СВ - северо-восточный, В - восточный, ЮВ - юго-восточный, Ю - южный, ЮЗ - юго-западный, З - западный, СЗ - северо-западный.
Видимость - горизонтальная дальность видимости в метрах или километрах. При видимости от 1 до 10 км при отсутствии осадков обычно наблюдается дымка, при ухудшении видимости до 1 км и менее - туман. В сухую погоду видимость может ухудшаться дымом, пылью или мглою.
Явления - указаны атмосферные явления, наблюдавшиеся в срок или в последний час перед сроком; фигурными скобками обозначены явления, наблюдавшиеся между сроками (за 1-3 часа до срока); квадратными скобками обозначены град или гололедные отложения с указанием их диаметра в мм.
Облачность - указаны через наклонную черту общая и нижняя облачность в баллах и высота нижней границы облаков в метрах; квадратными скобками обозначены формы облаков: Ci - перистые, Cs - перисто-слоистые, Cc - перисто-кучевые, Ac - высококучевые, As - высокослоистые, Sc - слоисто-кучевые, Ns - слоисто-дождевые, Cu - кучевые, Cb - кучево-дождевые. Подробнее классификацию облаков см. в Атласе облаков (PDF).
T - Температура воздуха - температура, измеренная на высоте 2 м над землей.
Td - Температура точки росы - температура, при понижении до которой содержащийся в воздухе водяной пар достигнет насыщения.
f - Относительная влажность воздуха - влажноcть воздуха, измеренная на высоте 2 м над землей.
Te - Эффективная температура - температура, которую ощущает одетый по сезону человек в тени. Характеристика душности погоды. При расчете учитывается влияние влажности воздуха и скорости ветра на теплоощущения человека.
Tes - Эффективная температура на солнце - температура, которую ощущает человек, с поправкой на солнечный нагрев. Характеристика знойности погоды. Зависит от высоты солнца над горизонтом, облачности и скорости ветра. Ночью, в пасмурную погоду, а также при ветре 12 м/с и более поправка равна нулю.
P - Атмосферное давление - приведенное к уровню моря атмосферное давление.
Po - Атмосферное давление - измеренное на уровне метеостанции атмосферное давление.
Tmin - Минимальная температура - минимум температуры воздуха на высоте 2 м над землей.
Tmax - Максимальная температура - максимум температуры воздуха на высоте 2 м над землей.
R - Количество осадков - Количество выпавших осадков за период времени, мм. При наведении курсора мыши на число - период времени, за который выпало указанное количество осадков.
R24 - Количество осадков - Количество выпавших осадков за 24 часа, мм.
S - Снежный покров - Высота снежного покрова, см. При наведении курсора мыши на число - состояние снежного покрова и степень покрытия местности в баллах.